DW7780 Weather Reports


time (UTC)temp
F
wind
direction
speed
knots
gust
knots
rain 1hr
in
rain 24hr
in
rain mn
in
humidity
%
barometer
mb
20260906204535 76 0 0.0 0.9 0.00 0.00 0.00 62 1014.6
20260906203032 76 0 0.0 2.6 0.00 0.00 0.00 56 1014.8
20260906201536 76 0 0.0 1.7 0.00 0.00 0.00 60 1014.8
20260906200032 76 267 0.0 3.5 0.00 0.00 0.00 60 1014.7
20260906194534 76 0 0.0 2.6 0.00 0.00 0.00 59 1014.9
20260906193034 76 0 0.0 6.1 0.00 0.00 0.00 61 1014.9
20260906191533 76 255 0.0 2.6 0.00 0.00 0.00 64 1014.9
20260906190034 75 257 0.0 3.5 0.00 0.00 0.00 64 1014.9
20260906184535 75 0 0.0 3.5 0.00 0.00 0.00 64 1015.0
20260906183037 75 0 0.0 2.6 0.00 0.00 0.00 65 1015.1
20260906181533 74 0 0.9 4.3 0.00 0.00 0.00 65 1015.2
20260906180046 74 0 0.0 2.6 0.00 0.00 0.00 67 1015.3
20260906174535 74 0 0.0 5.2 0.00 0.00 0.00 66 1015.2
20260906173038 74 121 0.9 7.8 0.00 0.00 0.00 66 1015.5
20260906171532 73 0 0.0 5.2 0.00 0.00 0.00 68 1015.5
20260906170032 73 0 0.0 3.5 0.00 0.00 0.00 69 1015.7
20260906164535 72 0 0.0 4.3 0.00 0.00 0.00 71 1015.8
20260906163036 72 0 0.0 4.3 0.00 0.00 0.00 73 1015.8
20260906161532 71 0 0.9 5.2 0.00 0.00 0.00 74 1016.0
20260906160036 70 71 0.9 5.2 0.00 0.00 0.00 78 1016.0
20260906154534 71 0 0.0 5.2 0.00 0.00 0.00 75 1016.2
20260906153038 70 45 0.9 6.1 0.00 0.00 0.00 78 1016.1
20260906151534 70 0 0.0 0.0 0.00 0.00 0.00 78 1016.0
20260906150035 70 0 0.0 3.5 0.00 0.00 0.00 78 1016.0
20260906144537 70 0 0.9 6.1 0.00 0.00 0.00 77 1015.8
20260906143031 69 0 0.9 2.6 0.00 0.00 0.00 79 1015.9
20260906141534 69 0 0.0 3.5 0.00 0.00 0.00 79 1015.7
20260906140035 69 0 0.0 5.2 0.00 0.00 0.00 80 1015.7
20260906134537 69 89 0.9 4.3 0.00 0.00 0.00 80 1015.5
20260906133034 68 0 0.0 0.0 0.00 0.00 0.00 81 1015.3
20260906131531 67 76 0.9 6.1 0.00 0.00 0.00 84 1015.4
20260906130039 66 0 0.0 0.0 0.00 0.00 0.00 88 1015.3
20260906124538 65 0 0.0 2.6 0.00 0.00 0.00 92 1015.3
20260906123034 63 84 0.0 2.6 0.00 0.00 0.00 95 1015.2
20260906121531 62 0 0.0 0.9 0.00 0.00 0.00 97 1015.1
20260906120032 61 0 0.0 1.7 0.00 0.00 0.00 97 1014.9
20260906114532 60 0 0.0 0.0 0.00 0.00 0.00 96 1014.7
20260906113034 59 0 0.0 0.0 0.00 0.00 0.00 96 1014.5
20260906111531 59 0 0.0 0.0 0.00 0.00 0.00 95 1014.2
20260906110034 59 0 0.0 0.0 0.00 0.00 0.00 95 1014.0
20260906104530 60 0 0.0 0.0 0.00 0.00 0.00 96 1013.7
20260906103032 60 0 0.0 0.0 0.00 0.00 0.00 96 1013.6
20260906101535 59 0 0.0 0.0 0.00 0.00 0.00 96 1013.5
20260906100033 59 0 0.0 0.0 0.00 0.00 0.00 95 1013.3
20260906094531 59 0 0.0 0.0 0.00 0.00 0.00 94 1013.2
20260906093043 59 0 0.0 0.0 0.00 0.00 0.00 94 1013.0
20260906091533 59 0 0.0 0.0 0.00 0.00 0.00 93 1012.8
20260906090032 59 0 0.0 0.0 0.00 0.00 0.00 93 1012.6
20260906084538 59 0 0.0 0.0 0.00 0.00 0.00 93 1012.7
20260906083035 59 0 0.0 0.0 0.00 0.00 0.00 92 1012.3
20260906081535 59 0 0.0 0.0 0.00 0.00 0.00 92 1012.4
20260906080044 59 0 0.0 0.0 0.00 0.00 0.00 92 1012.5
20260906074532 59 0 0.0 0.0 0.00 0.00 0.00 92 1012.4
20260906073031 60 0 0.0 0.0 0.00 0.00 0.00 92 1012.2
20260906071532 60 0 0.0 0.0 0.00 0.00 0.00 92 1012.2
20260906070039 60 0 0.0 0.0 0.00 0.00 0.00 92 1012.3
20260906064536 60 0 0.0 0.0 0.00 0.00 0.00 91 1012.3
20260906063031 60 0 0.0 0.0 0.00 0.00 0.00 91 1012.4
20260906061539 61 0 0.0 0.0 0.00 0.00 0.00 91 1012.5
20260906060037 61 0 0.0 0.0 0.00 0.00 0.00 91 1012.6
20260906054535 61 0 0.0 0.0 0.00 0.00 0.00 91 1012.7
20260906053033 61 0 0.0 0.0 0.00 0.00 0.00 91 1012.7
20260906051532 62 0 0.0 0.0 0.00 0.00 0.00 91 1012.9
20260906050034 62 0 0.0 0.0 0.00 0.00 0.00 91 1012.8
20260906044534 62 0 0.0 0.0 0.00 0.00 0.00 91 1012.9
20260906043031 62 0 0.0 0.0 0.00 0.00 0.00 91 1012.8
20260906041541 62 0 0.0 0.0 0.00 0.00 0.00 91 1012.7
20260906040044 62 0 0.0 0.0 0.00 0.00 0.00 90 1012.8
20260906034535 62 0 0.0 0.0 0.00 0.00 0.00 90 1012.7
20260906033034 63 0 0.0 0.0 0.00 0.00 0.00 90 1012.7
20260906031531 63 0 0.0 0.0 0.00 0.00 0.00 90 1012.7
20260906030032 63 0 0.0 0.0 0.00 0.00 0.00 89 1012.4
20260906024533 63 0 0.0 0.0 0.00 0.00 0.00 89 1012.3
20260906023042 64 0 0.0 0.0 0.00 0.00 0.00 89 1012.3
20260906021532 64 0 0.0 0.0 0.00 0.00 0.00 89 1012.3
20260906020033 64 0 0.0 0.0 0.00 0.00 0.00 88 1012.3
20260906014539 64 0 0.0 0.0 0.00 0.00 0.00 87 1012.2
20260906013033 65 0 0.0 0.0 0.00 0.00 0.00 86 1012.2
20260906011534 65 0 0.0 0.0 0.00 0.00 0.00 86 1012.0
20260906010033 66 0 0.0 0.0 0.00 0.00 0.00 86 1011.9
20260906004531 66 0 0.0 0.0 0.00 0.00 0.00 86 1011.7
20260906003031 67 0 0.0 0.0 0.00 0.00 0.00 85 1011.6
20260906001533 67 0 0.0 0.0 0.00 0.00 0.00 84 1011.3
20260906000035 68 0 0.0 0.0 0.00 0.00 0.00 83 1011.1
20260905234535 69 0 0.0 0.0 0.00 0.00 0.00 80 1010.8
20260905233046 70 0 0.0 0.0 0.00 0.00 0.00 79 1010.7
20260905231548 71 0 0.0 0.0 0.00 0.00 0.00 79 1010.8
20260905230032 72 0 0.0 0.0 0.00 0.00 0.00 76 1010.7
20260905224534 73 0 0.0 0.0 0.00 0.00 0.00 73 1010.5
20260905223035 73 0 0.0 0.0 0.00 0.00 0.00 72 1010.7
20260905221538 74 0 0.0 0.0 0.00 0.00 0.00 70 1010.4
20260905220033 74 0 0.0 0.9 0.00 0.00 0.00 69 1010.3
20260905214536 75 0 0.0 0.0 0.00 0.00 0.00 69 1010.4
20260905213036 75 0 0.0 0.0 0.00 0.00 0.00 65 1010.4
20260905211534 76 0 0.0 0.0 0.00 0.00 0.00 63 1010.4
20260905210034 77 0 0.0 5.2 0.00 0.00 0.00 60 1010.3